User: anonymous   Login
Location: Unspecified
(0.0000°N, 0.0000°E)
Time: 12:57:07
(UTC+00:00)
Language:

DEMETER - Orbit

View from above orbital plane
View from above orbital plane
View from above satellite
View from above satellite

Ground track
Ground track

The orbit data is extracted from the following two-line orbital elements,

1 28368U 04025C   18288.93829750  .00000134  00000-0  27287-4 0  9996
2 28368  97.7553 271.0181 0002179 103.7664 256.3788 14.74406587767196
Epoch (UTC): 15 October 2018 22:31:08
Eccentricity: 0.0002179
inclination: 97.7553°
perigee height: 645 km
apogee height: 648 km
right ascension of ascending node: 271.0181°
argument of perigee: 103.7664°
revolutions per day: 14.74406587
mean anomaly at epoch: 256.3788°
orbit number at epoch: 76719

The dashed part of the orbit path shows where the satellite is in the earth's shadow,  

DLR